Location: Unspecified
(39.0670°S, 0.0000°E)
Time: 13:38:11
(UTC+00:00)

N. Korean satellite - Visible Passes

Search period start: 20 June 2019 00:00
Search period end: 30 June 2019 00:00
Orbit: 455 x 510 km, 97.2° (Epoch: 19 June)

Date Brightness Start Highest point End Pass type
(mag) Time Alt. Az. Time Alt. Az. Time Alt. Az.
20 Jun 7.5 04:58:59 10° NNE 05:02:21 49° E 05:02:21 49° E visible
20 Jun 6.5 17:59:53 10° SSE 18:03:41 79° ENE 18:07:22 10° N visible
21 Jun 9.0 04:34:37 10° NE 04:37:03 23° E 04:37:03 23° E visible
21 Jun 8.0 06:08:14 10° NW 06:10:59 20° W 06:11:21 20° W visible
21 Jun 7.3 17:35:06 10° SSE 17:38:36 35° E 17:41:59 10° NNE visible
21 Jun 9.6 19:09:34 10° SSW 19:11:39 14° WSW 19:13:43 10° W visible
22 Jun 10.0 04:11:08 10° E 04:11:44 12° E 04:11:44 12° E visible
22 Jun 7.0 05:42:19 10° N 05:45:49 41° W 05:46:03 40° W visible
22 Jun 8.3 17:10:51 10° SE 17:13:24 17° E 17:15:55 10° NE visible
22 Jun 8.7 18:43:35 10° SSW 18:46:49 27° WSW 18:49:59 10° NW visible
23 Jun 6.5 05:17:03 10° NNE 05:20:44 89° E 05:20:44 89° E visible
23 Jun 7.2 18:18:11 10° S 18:21:54 57° WSW 18:25:30 10° NNW visible
24 Jun 8.0 04:52:16 10° NE 04:55:26 39° E 04:55:26 39° E visible
24 Jun 8.6 06:27:55 10° WNW 06:29:23 12° W 06:29:45 12° W visible
24 Jun 6.6 17:53:08 10° SSE 17:56:53 63° E 18:00:30 10° N visible
25 Jun 9.3 04:28:04 10° ENE 04:30:07 19° E 04:30:07 19° E visible
25 Jun 7.8 06:01:06 10° NNW 06:04:09 24° W 06:04:26 24° W visible
25 Jun 7.6 17:28:28 10° SE 17:31:45 29° E 17:34:58 10° NNE visible
25 Jun 9.4 19:02:28 10° SSW 19:04:54 17° WSW 19:07:19 10° WNW visible
26 Jun 6.8 05:35:23 10° N 05:39:00 50° W 05:39:07 50° W visible
26 Jun 8.3 18:36:40 10° S 18:40:03 32° WSW 18:43:20 10° NW visible
27 Jun 6.8 05:10:14 10° NNE 05:13:49 72° E 05:13:49 72° E visible
27 Jun 6.8 18:11:22 10° S 18:15:06 71° WSW 18:18:42 10° NNW visible
28 Jun 8.4 04:45:36 10° NE 04:48:30 32° E 04:48:30 32° E visible
28 Jun 8.4 06:20:23 10° NW 06:22:30 15° W 06:22:49 14° W visible
28 Jun 6.8 17:46:24 10° SSE 17:50:02 51° E 17:53:34 10° N visible
28 Jun 9.9 19:22:32 10° WSW 19:22:55 10° WSW 19:23:18 10° WSW visible
29 Jun 9.6 04:21:34 10° ENE 04:23:11 16° E 04:23:11 16° E visible
29 Jun 7.5 05:54:00 10° NNW 05:57:17 29° W 05:57:30 29° W visible
29 Jun 7.8 17:21:50 10° SE 17:24:53 24° E 17:27:50 10° NNE visible
29 Jun 9.2 18:55:24 10° SSW 18:58:08 20° WSW 19:00:48 10° WNW visible
